owner,sensor,date,latitude,longitude,vertical_datum,sea_water_practical_salinity,qcFlag 
TABS,ioos:station:wmo:42043:1,2013-04-01T00:00:00Z,28.9818,-94.9186,2.0,32.06,11111222 
TABS,ioos:station:wmo:42043:1,2013-04-01T00:30:00Z,28.9818,-94.9186,2.0,32.6,11111222 
TABS,ioos:station:wmo:42043:1,2013-04-01T01:00:00Z,28.9818,-94.9186,2.0,32.98,11111222 
TABS,ioos:station:wmo:42043:1,2013-04-01T01:30:00Z,28.9818,-94.9186,2.0,33.24,11111222 
TABS,ioos:station:wmo:42043:1,2013-04-01T02:00:00Z,28.9818,-94.9186,2.0,33.55,11111222 
TABS,ioos:station:wmo:42043:1,2013-04-01T02:30:00Z,28.9818,-94.9186,2.0,33.77,11111222 
TABS,ioos:station:wmo:42043:1,2013-04-01T03:00:00Z,28.9818,-94.9186,2.0,33.8,11111222 
TABS,ioos:station:wmo:42043:1,2013-04-01T03:30:00Z,28.9818,-94.9186,2.0,33.92,11111222 
TABS,ioos:station:wmo:42043:1,2013-04-01T04:00:00Z,28.9818,-94.9186,2.0,33.92,11111222 
TABS,ioos:station:wmo:42043:1,2013-04-01T04:30:00Z,28.9818,-94.9186,2.0,33.91,11111222 
TABS,ioos:station:wmo:42043:1,2013-04-01T05:00:00Z,28.9818,-94.9186,2.0,33.95,11111222 
TABS,ioos:station:wmo:42043:1,2013-04-01T05:30:00Z,28.9818,-94.9186,2.0,33.99,11111222 
TABS,ioos:station:wmo:42043:1,2013-04-01T06:00:00Z,28.9818,-94.9186,2.0,34.06,11111222 
TABS,ioos:station:wmo:42043:1,2013-04-01T06:30:00Z,28.9818,-94.9186,2.0,34.07,11111222 
TABS,ioos:station:wmo:42043:1,2013-04-01T07:00:00Z,28.9818,-94.9186,2.0,34.04,11111222 
TABS,ioos:station:wmo:42043:1,2013-04-01T07:30:00Z,28.9818,-94.9186,2.0,34.05,11111222 
TABS,ioos:station:wmo:42043:1,2013-04-01T08:00:00Z,28.9818,-94.9186,2.0,34.05,11111222 
TABS,ioos:station:wmo:42043:1,2013-04-01T08:30:00Z,28.9818,-94.9186,2.0,34.04,11111222 
TABS,ioos:station:wmo:42043:1,2013-04-01T09:00:00Z,28.9818,-94.9186,2.0,34.01,11111222 
TABS,ioos:station:wmo:42043:1,2013-04-01T09:30:00Z,28.9818,-94.9186,2.0,34.01,11111222 
TABS,ioos:station:wmo:42043:1,2013-04-01T10:00:00Z,28.9818,-94.9186,2.0,34.02,11111222 
TABS,ioos:station:wmo:42043:1,2013-04-01T10:30:00Z,28.9818,-94.9186,2.0,34.03,11111222 
TABS,ioos:station:wmo:42043:1,2013-04-01T11:00:00Z,28.9818,-94.9186,2.0,34.02,11111222 
TABS,ioos:station:wmo:42043:1,2013-04-01T11:30:00Z,28.9818,-94.9186,2.0,34.0,11111222 
TABS,ioos:station:wmo:42043:1,2013-04-01T12:00:00Z,28.9818,-94.9186,2.0,33.98,11111222 
TABS,ioos:station:wmo:42043:1,2013-04-01T12:30:00Z,28.9818,-94.9186,2.0,33.97,11111222 
TABS,ioos:station:wmo:42043:1,2013-04-01T13:00:00Z,28.9818,-94.9186,2.0,33.95,11111222 
TABS,ioos:station:wmo:42043:1,2013-04-01T13:30:00Z,28.9818,-94.9186,2.0,33.95,11111222 
TABS,ioos:station:wmo:42043:1,2013-04-01T14:00:00Z,28.9818,-94.9186,2.0,33.92,11111222 
TABS,ioos:station:wmo:42043:1,2013-04-01T14:30:00Z,28.9818,-94.9186,2.0,33.92,11111222 
TABS,ioos:station:wmo:42043:1,2013-04-01T15:00:00Z,28.9818,-94.9186,2.0,33.92,11111222 
TABS,ioos:station:wmo:42043:1,2013-04-01T15:30:00Z,28.9818,-94.9186,2.0,33.92,11111222 
TABS,ioos:station:wmo:42043:1,2013-04-01T16:00:00Z,28.9818,-94.9186,2.0,33.9,11111222 
TABS,ioos:station:wmo:42043:1,2013-04-01T16:30:00Z,28.9818,-94.9186,2.0,33.9,11111222 
TABS,ioos:station:wmo:42043:1,2013-04-01T17:00:00Z,28.9818,-94.9186,2.0,33.91,11111222 
TABS,ioos:station:wmo:42043:1,2013-04-01T17:30:00Z,28.9818,-94.9186,2.0,33.91,11111222 
TABS,ioos:station:wmo:42043:1,2013-04-01T18:00:00Z,28.9818,-94.9186,2.0,33.89,11111222 
TABS,ioos:station:wmo:42043:1,2013-04-01T18:30:00Z,28.9818,-94.9186,2.0,33.89,11111222 
TABS,ioos:station:wmo:42043:1,2013-04-01T19:00:00Z,28.9818,-94.9186,2.0,33.88,11111222 
TABS,ioos:station:wmo:42043:1,2013-04-01T19:30:00Z,28.9818,-94.9186,2.0,33.86,11111222 
TABS,ioos:station:wmo:42043:1,2013-04-01T20:00:00Z,28.9818,-94.9186,2.0,33.89,11111222 
TABS,ioos:station:wmo:42043:1,2013-04-01T20:30:00Z,28.9818,-94.9186,2.0,33.89,11111222 
TABS,ioos:station:wmo:42043:1,2013-04-01T21:00:00Z,28.9818,-94.9186,2.0,33.9,11111222 
TABS,ioos:station:wmo:42043:1,2013-04-01T21:30:00Z,28.9818,-94.9186,2.0,33.88,11111222 
TABS,ioos:station:wmo:42043:1,2013-04-01T22:00:00Z,28.9818,-94.9186,2.0,33.89,11111222 
TABS,ioos:station:wmo:42043:1,2013-04-01T22:30:00Z,28.9818,-94.9186,2.0,33.86,11111222 
TABS,ioos:station:wmo:42043:1,2013-04-01T23:00:00Z,28.9818,-94.9186,2.0,33.88,11111222 
TABS,ioos:station:wmo:42043:1,2013-04-01T23:30:00Z,28.9818,-94.9186,2.0,33.87,11111222 
TABS,ioos:station:wmo:42043:1,2013-04-03T00:00:00Z,28.9818,-94.9186,2.0,33.71,11111222 
TABS,ioos:station:wmo:42043:1,2013-04-03T00:30:00Z,28.9818,-94.9186,2.0,33.71,11111222 
TABS,ioos:station:wmo:42043:1,2013-04-03T01:00:00Z,28.9818,-94.9186,2.0,33.71,11111222 
TABS,ioos:station:wmo:42043:1,2013-04-03T01:30:00Z,28.9818,-94.9186,2.0,33.72,11111222 
TABS,ioos:station:wmo:42043:1,2013-04-03T02:00:00Z,28.9818,-94.9186,2.0,33.73,11111222 
TABS,ioos:station:wmo:42043:1,2013-04-03T02:30:00Z,28.9818,-94.9186,2.0,33.71,11111222 
TABS,ioos:station:wmo:42043:1,2013-04-03T03:00:00Z,28.9818,-94.9186,2.0,33.7,11111222 
TABS,ioos:station:wmo:42043:1,2013-04-03T03:30:00Z,28.9818,-94.9186,2.0,33.69,11111222 
TABS,ioos:station:wmo:42043:1,2013-04-03T04:00:00Z,28.9818,-94.9186,2.0,33.65,11111222 
TABS,ioos:station:wmo:42043:1,2013-04-03T04:30:00Z,28.9818,-94.9186,2.0,33.58,11111222 
TABS,ioos:station:wmo:42043:1,2013-04-03T05:00:00Z,28.9818,-94.9186,2.0,33.46,11111222 
TABS,ioos:station:wmo:42043:1,2013-04-03T05:30:00Z,28.9818,-94.9186,2.0,33.26,11111222 
TABS,ioos:station:wmo:42043:1,2013-04-03T06:00:00Z,28.9818,-94.9186,2.0,33.11,11111222 
TABS,ioos:station:wmo:42043:1,2013-04-03T06:30:00Z,28.9818,-94.9186,2.0,33.03,11111222 
TABS,ioos:station:wmo:42043:1,2013-04-03T07:00:00Z,28.9818,-94.9186,2.0,33.15,11111222 
TABS,ioos:station:wmo:42043:1,2013-04-03T07:30:00Z,28.9818,-94.9186,2.0,33.12,11111222 
TABS,ioos:station:wmo:42043:1,2013-04-03T08:00:00Z,28.9818,-94.9186,2.0,33.07,11111222 
TABS,ioos:station:wmo:42043:1,2013-04-03T08:30:00Z,28.9818,-94.9186,2.0,32.95,11111222 
TABS,ioos:station:wmo:42043:1,2013-04-03T09:00:00Z,28.9818,-94.9186,2.0,32.83,11111222 
TABS,ioos:station:wmo:42043:1,2013-04-03T09:30:00Z,28.9818,-94.9186,2.0,32.84,11111222 
TABS,ioos:station:wmo:42043:1,2013-04-03T10:00:00Z,28.9818,-94.9186,2.0,32.84,11111222 
TABS,ioos:station:wmo:42043:1,2013-04-03T10:30:00Z,28.9818,-94.9186,2.0,32.87,11111222 
TABS,ioos:station:wmo:42043:1,2013-04-03T11:00:00Z,28.9818,-94.9186,2.0,32.87,11111222 
TABS,ioos:station:wmo:42043:1,2013-04-03T11:30:00Z,28.9818,-94.9186,2.0,32.95,11111222 
TABS,ioos:station:wmo:42043:1,2013-04-03T12:00:00Z,28.9818,-94.9186,2.0,33.08,11111222 
TABS,ioos:station:wmo:42043:1,2013-04-03T12:30:00Z,28.9818,-94.9186,2.0,33.04,11111222 
TABS,ioos:station:wmo:42043:1,2013-04-03T13:00:00Z,28.9818,-94.9186,2.0,33.15,11111222 
TABS,ioos:station:wmo:42043:1,2013-04-03T13:30:00Z,28.9818,-94.9186,2.0,33.14,11111222 
TABS,ioos:station:wmo:42043:1,2013-04-03T14:00:00Z,28.9818,-94.9186,2.0,33.15,11111222 
TABS,ioos:station:wmo:42043:1,2013-04-03T14:30:00Z,28.9818,-94.9186,2.0,33.16,11111222 
TABS,ioos:station:wmo:42043:1,2013-04-03T15:00:00Z,28.9818,-94.9186,2.0,33.12,11111222 
TABS,ioos:station:wmo:42043:1,2013-04-03T15:30:00Z,28.9818,-94.9186,2.0,33.2,11111222 
TABS,ioos:station:wmo:42043:1,2013-04-03T16:00:00Z,28.9818,-94.9186,2.0,33.25,11111222 
TABS,ioos:station:wmo:42043:1,2013-04-03T16:30:00Z,28.9818,-94.9186,2.0,33.36,11111222 
TABS,ioos:station:wmo:42043:1,2013-04-03T17:00:00Z,28.9818,-94.9186,2.0,33.4,11111222 
TABS,ioos:station:wmo:42043:1,2013-04-03T17:30:00Z,28.9818,-94.9186,2.0,33.44,11111222 
TABS,ioos:station:wmo:42043:1,2013-04-03T18:00:00Z,28.9818,-94.9186,2.0,33.46,11111222 
TABS,ioos:station:wmo:42043:1,2013-04-03T18:30:00Z,28.9818,-94.9186,2.0,33.43,11111222 
TABS,ioos:station:wmo:42043:1,2013-04-03T19:00:00Z,28.9818,-94.9186,2.0,34.13,11111222 
TABS,ioos:station:wmo:42043:1,2013-04-03T19:30:00Z,28.9818,-94.9186,2.0,34.35,11111222 
TABS,ioos:station:wmo:42043:1,2013-04-03T20:00:00Z,28.9818,-94.9186,2.0,34.38,11111222 
TABS,ioos:station:wmo:42043:1,2013-04-03T20:30:00Z,28.9818,-94.9186,2.0,34.37,11111222 
TABS,ioos:station:wmo:42043:1,2013-04-03T21:00:00Z,28.9818,-94.9186,2.0,33.6,11111222 
TABS,ioos:station:wmo:42043:1,2013-04-03T21:30:00Z,28.9818,-94.9186,2.0,33.79,11111222 
TABS,ioos:station:wmo:42043:1,2013-04-03T22:00:00Z,28.9818,-94.9186,2.0,33.4,11111222 
TABS,ioos:station:wmo:42043:1,2013-04-03T22:30:00Z,28.9818,-94.9186,2.0,33.79,11111222 
TABS,ioos:station:wmo:42043:1,2013-04-03T23:00:00Z,28.9818,-94.9186,2.0,33.83,11111222 
TABS,ioos:station:wmo:42043:1,2013-04-03T23:30:00Z,28.9818,-94.9186,2.0,33.72,11111222 
TABS,ioos:station:wmo:42043:1,2013-04-04T00:00:00Z,28.9818,-94.9186,2.0,33.72,11111222 
TABS,ioos:station:wmo:42043:1,2013-04-04T00:30:00Z,28.9818,-94.9186,2.0,33.69,11111222 
TABS,ioos:station:wmo:42043:1,2013-04-04T01:00:00Z,28.9818,-94.9186,2.0,33.93,11111222 
TABS,ioos:station:wmo:42043:1,2013-04-04T01:30:00Z,28.9818,-94.9186,2.0,33.96,11111222 
TABS,ioos:station:wmo:42043:1,2013-04-04T02:00:00Z,28.9818,-94.9186,2.0,33.98,11111222 
TABS,ioos:station:wmo:42043:1,2013-04-04T02:30:00Z,28.9818,-94.9186,2.0,34.01,11111222 
TABS,ioos:station:wmo:42043:1,2013-04-04T03:00:00Z,28.9818,-94.9186,2.0,33.96,11111222 
TABS,ioos:station:wmo:42043:1,2013-04-04T03:30:00Z,28.9818,-94.9186,2.0,33.92,11111222 
TABS,ioos:station:wmo:42043:1,2013-04-04T04:00:00Z,28.9818,-94.9186,2.0,33.92,11111222 
TABS,ioos:station:wmo:42043:1,2013-04-04T04:30:00Z,28.9818,-94.9186,2.0,33.92,11111222 
TABS,ioos:station:wmo:42043:1,2013-04-04T05:00:00Z,28.9818,-94.9186,2.0,33.96,11111222 
TABS,ioos:station:wmo:42043:1,2013-04-04T05:30:00Z,28.9818,-94.9186,2.0,33.77,11111222 
TABS,ioos:station:wmo:42043:1,2013-04-04T06:00:00Z,28.9818,-94.9186,2.0,33.35,11111222 
TABS,ioos:station:wmo:42043:1,2013-04-04T06:30:00Z,28.9818,-94.9186,2.0,33.18,11111222 
TABS,ioos:station:wmo:42043:1,2013-04-04T07:00:00Z,28.9818,-94.9186,2.0,32.61,11111222 
TABS,ioos:station:wmo:42043:1,2013-04-04T07:30:00Z,28.9818,-94.9186,2.0,32.28,11111222 
TABS,ioos:station:wmo:42043:1,2013-04-04T08:00:00Z,28.9818,-94.9186,2.0,32.04,11111222 
TABS,ioos:station:wmo:42043:1,2013-04-04T08:30:00Z,28.9818,-94.9186,2.0,31.98,11111222 
TABS,ioos:station:wmo:42043:1,2013-04-04T09:00:00Z,28.9818,-94.9186,2.0,31.75,11111222 
TABS,ioos:station:wmo:42043:1,2013-04-04T09:30:00Z,28.9818,-94.9186,2.0,31.6,11111222 
TABS,ioos:station:wmo:42043:1,2013-04-04T10:00:00Z,28.9818,-94.9186,2.0,31.56,11111222 
TABS,ioos:station:wmo:42043:1,2013-04-04T10:30:00Z,28.9818,-94.9186,2.0,31.67,11111222 
TABS,ioos:station:wmo:42043:1,2013-04-04T11:00:00Z,28.9818,-94.9186,2.0,31.76,11111222 
TABS,ioos:station:wmo:42043:1,2013-04-04T11:30:00Z,28.9818,-94.9186,2.0,31.76,11111222 
TABS,ioos:station:wmo:42043:1,2013-04-04T12:00:00Z,28.9818,-94.9186,2.0,31.77,11111222 
TABS,ioos:station:wmo:42043:1,2013-04-04T12:30:00Z,28.9818,-94.9186,2.0,31.93,11111222 
TABS,ioos:station:wmo:42043:1,2013-04-04T13:00:00Z,28.9818,-94.9186,2.0,31.82,11111222 
TABS,ioos:station:wmo:42043:1,2013-04-04T13:30:00Z,28.9818,-94.9186,2.0,31.82,11111222 
TABS,ioos:station:wmo:42043:1,2013-04-04T14:00:00Z,28.9818,-94.9186,2.0,31.9,11111222 
TABS,ioos:station:wmo:42043:1,2013-04-04T14:30:00Z,28.9818,-94.9186,2.0,31.96,11111222 
TABS,ioos:station:wmo:42043:1,2013-04-04T15:00:00Z,28.9818,-94.9186,2.0,32.11,11111222 
TABS,ioos:station:wmo:42043:1,2013-04-04T15:30:00Z,28.9818,-94.9186,2.0,32.01,11111222 
TABS,ioos:station:wmo:42043:1,2013-04-04T16:00:00Z,28.9818,-94.9186,2.0,31.98,11111222 
TABS,ioos:station:wmo:42043:1,2013-04-04T16:30:00Z,28.9818,-94.9186,2.0,31.94,11111222 
TABS,ioos:station:wmo:42043:1,2013-04-04T17:00:00Z,28.9818,-94.9186,2.0,32.17,11111222 
TABS,ioos:station:wmo:42043:1,2013-04-04T17:30:00Z,28.9818,-94.9186,2.0,32.28,11111222 
TABS,ioos:station:wmo:42043:1,2013-04-04T18:00:00Z,28.9818,-94.9186,2.0,32.11,11111222 
TABS,ioos:station:wmo:42043:1,2013-04-04T18:30:00Z,28.9818,-94.9186,2.0,32.29,11111222 
TABS,ioos:station:wmo:42043:1,2013-04-04T19:00:00Z,28.9818,-94.9186,2.0,32.42,11111222 
TABS,ioos:station:wmo:42043:1,2013-04-04T19:30:00Z,28.9818,-94.9186,2.0,32.24,11111222 
TABS,ioos:station:wmo:42043:1,2013-04-04T20:00:00Z,28.9818,-94.9186,2.0,32.12,11111222 
TABS,ioos:station:wmo:42043:1,2013-04-04T20:30:00Z,28.9818,-94.9186,2.0,32.04,11111222 
TABS,ioos:station:wmo:42043:1,2013-04-04T21:00:00Z,28.9818,-94.9186,2.0,31.35,11111222 
TABS,ioos:station:wmo:42043:1,2013-04-04T21:30:00Z,28.9818,-94.9186,2.0,32.11,11111222 
TABS,ioos:station:wmo:42043:1,2013-04-04T22:00:00Z,28.9818,-94.9186,2.0,32.06,11111222 
TABS,ioos:station:wmo:42043:1,2013-04-04T22:30:00Z,28.9818,-94.9186,2.0,30.71,11111222 
TABS,ioos:station:wmo:42043:1,2013-04-04T23:00:00Z,28.9818,-94.9186,2.0,30.92,11111222 
TABS,ioos:station:wmo:42043:1,2013-04-04T23:30:00Z,28.9818,-94.9186,2.0,31.01,11111222 
TABS,ioos:station:wmo:42043:1,2013-04-05T00:00:00Z,28.9818,-94.9186,2.0,31.27,11111222 
TABS,ioos:station:wmo:42043:1,2013-04-05T00:30:00Z,28.9818,-94.9186,2.0,31.84,11111222 
TABS,ioos:station:wmo:42043:1,2013-04-05T01:00:00Z,28.9818,-94.9186,2.0,31.3,11111222 
TABS,ioos:station:wmo:42043:1,2013-04-05T01:30:00Z,28.9818,-94.9186,2.0,31.84,11111222 
TABS,ioos:station:wmo:42043:1,2013-04-05T02:00:00Z,28.9818,-94.9186,2.0,32.16,11111222 
TABS,ioos:station:wmo:42043:1,2013-04-05T02:30:00Z,28.9818,-94.9186,2.0,32.44,11111222 
TABS,ioos:station:wmo:42043:1,2013-04-05T03:00:00Z,28.9818,-94.9186,2.0,32.49,11111222 
TABS,ioos:station:wmo:42043:1,2013-04-05T03:30:00Z,28.9818,-94.9186,2.0,32.58,11111222 
TABS,ioos:station:wmo:42043:1,2013-04-05T04:00:00Z,28.9818,-94.9186,2.0,31.68,11111222 
TABS,ioos:station:wmo:42043:1,2013-04-05T04:30:00Z,28.9818,-94.9186,2.0,32.07,11111222 
TABS,ioos:station:wmo:42043:1,2013-04-05T05:00:00Z,28.9818,-94.9186,2.0,32.32,11111222 
TABS,ioos:station:wmo:42043:1,2013-04-05T05:30:00Z,28.9818,-94.9186,2.0,32.45,11111222 
TABS,ioos:station:wmo:42043:1,2013-04-05T06:00:00Z,28.9818,-94.9186,2.0,32.39,11111222 
TABS,ioos:station:wmo:42043:1,2013-04-05T06:30:00Z,28.9818,-94.9186,2.0,32.43,11111222 
TABS,ioos:station:wmo:42043:1,2013-04-05T07:00:00Z,28.9818,-94.9186,2.0,32.64,11111222 
TABS,ioos:station:wmo:42043:1,2013-04-05T07:30:00Z,28.9818,-94.9186,2.0,32.63,11111222 
TABS,ioos:station:wmo:42043:1,2013-04-05T08:00:00Z,28.9818,-94.9186,2.0,32.65,11111222 
TABS,ioos:station:wmo:42043:1,2013-04-05T08:30:00Z,28.9818,-94.9186,2.0,32.69,11111222 
TABS,ioos:station:wmo:42043:1,2013-04-05T09:00:00Z,28.9818,-94.9186,2.0,32.45,11111222 
TABS,ioos:station:wmo:42043:1,2013-04-05T09:30:00Z,28.9818,-94.9186,2.0,32.65,11111222 
TABS,ioos:station:wmo:42043:1,2013-04-05T10:00:00Z,28.9818,-94.9186,2.0,32.72,11111222 
TABS,ioos:station:wmo:42043:1,2013-04-05T10:30:00Z,28.9818,-94.9186,2.0,32.28,11111222 
TABS,ioos:station:wmo:42043:1,2013-04-05T11:00:00Z,28.9818,-94.9186,2.0,32.48,11111222 
TABS,ioos:station:wmo:42043:1,2013-04-05T11:30:00Z,28.9818,-94.9186,2.0,32.66,11111222 
TABS,ioos:station:wmo:42043:1,2013-04-05T12:00:00Z,28.9818,-94.9186,2.0,32.73,11111222 
TABS,ioos:station:wmo:42043:1,2013-04-05T12:30:00Z,28.9818,-94.9186,2.0,32.77,11111222 
TABS,ioos:station:wmo:42043:1,2013-04-05T13:00:00Z,28.9818,-94.9186,2.0,32.32,11111222 
TABS,ioos:station:wmo:42043:1,2013-04-05T13:30:00Z,28.9818,-94.9186,2.0,32.44,11111222 
TABS,ioos:station:wmo:42043:1,2013-04-05T14:00:00Z,28.9818,-94.9186,2.0,32.55,11111222 
TABS,ioos:station:wmo:42043:1,2013-04-05T14:30:00Z,28.9818,-94.9186,2.0,32.65,11111222 
TABS,ioos:station:wmo:42043:1,2013-04-05T15:00:00Z,28.9818,-94.9186,2.0,32.71,11111222 
TABS,ioos:station:wmo:42043:1,2013-04-05T15:30:00Z,28.9818,-94.9186,2.0,32.73,11111222 
TABS,ioos:station:wmo:42043:1,2013-04-05T16:00:00Z,28.9818,-94.9186,2.0,32.81,11111222 
TABS,ioos:station:wmo:42043:1,2013-04-05T16:30:00Z,28.9818,-94.9186,2.0,32.85,11111222 
TABS,ioos:station:wmo:42043:1,2013-04-05T17:00:00Z,28.9818,-94.9186,2.0,32.81,11111222 
TABS,ioos:station:wmo:42043:1,2013-04-05T17:30:00Z,28.9818,-94.9186,2.0,32.87,11111222 
TABS,ioos:station:wmo:42043:1,2013-04-05T18:00:00Z,28.9818,-94.9186,2.0,32.87,11111222 
TABS,ioos:station:wmo:42043:1,2013-04-05T18:30:00Z,28.9818,-94.9186,2.0,32.87,11111222 
TABS,ioos:station:wmo:42043:1,2013-04-05T19:00:00Z,28.9818,-94.9186,2.0,32.92,11111222 
TABS,ioos:station:wmo:42043:1,2013-04-05T19:30:00Z,28.9818,-94.9186,2.0,32.92,11111222 
TABS,ioos:station:wmo:42043:1,2013-04-05T20:00:00Z,28.9818,-94.9186,2.0,32.91,11111222 
TABS,ioos:station:wmo:42043:1,2013-04-05T20:30:00Z,28.9818,-94.9186,2.0,32.95,11111222 
TABS,ioos:station:wmo:42043:1,2013-04-05T21:00:00Z,28.9818,-94.9186,2.0,32.95,11111222 
TABS,ioos:station:wmo:42043:1,2013-04-05T21:30:00Z,28.9818,-94.9186,2.0,33.05,11111222 
TABS,ioos:station:wmo:42043:1,2013-04-05T22:00:00Z,28.9818,-94.9186,2.0,32.95,11111222 
TABS,ioos:station:wmo:42043:1,2013-04-05T22:30:00Z,28.9818,-94.9186,2.0,32.95,11111222 
TABS,ioos:station:wmo:42043:1,2013-04-05T23:00:00Z,28.9818,-94.9186,2.0,32.98,11111222 
TABS,ioos:station:wmo:42043:1,2013-04-05T23:30:00Z,28.9818,-94.9186,2.0,33.03,11111222 
TABS,ioos:station:wmo:42043:1,2013-04-06T00:00:00Z,28.9818,-94.9186,2.0,33.0,11111222 
TABS,ioos:station:wmo:42043:1,2013-04-06T00:30:00Z,28.9818,-94.9186,2.0,33.05,11111222 
TABS,ioos:station:wmo:42043:1,2013-04-06T01:00:00Z,28.9818,-94.9186,2.0,33.05,11111222 
TABS,ioos:station:wmo:42043:1,2013-04-06T01:30:00Z,28.9818,-94.9186,2.0,33.07,11111222 
TABS,ioos:station:wmo:42043:1,2013-04-06T02:00:00Z,28.9818,-94.9186,2.0,33.05,11111222 
TABS,ioos:station:wmo:42043:1,2013-04-06T02:30:00Z,28.9818,-94.9186,2.0,33.05,11111222 
TABS,ioos:station:wmo:42043:1,2013-04-06T03:00:00Z,28.9818,-94.9186,2.0,33.06,11111222 
TABS,ioos:station:wmo:42043:1,2013-04-06T03:30:00Z,28.9818,-94.9186,2.0,33.05,11111222 
TABS,ioos:station:wmo:42043:1,2013-04-06T04:00:00Z,28.9818,-94.9186,2.0,32.97,11111222 
TABS,ioos:station:wmo:42043:1,2013-04-06T04:30:00Z,28.9818,-94.9186,2.0,33.02,11111222 
TABS,ioos:station:wmo:42043:1,2013-04-06T05:00:00Z,28.9818,-94.9186,2.0,33.06,11111222 
TABS,ioos:station:wmo:42043:1,2013-04-06T05:30:00Z,28.9818,-94.9186,2.0,33.05,11111222 
TABS,ioos:station:wmo:42043:1,2013-04-06T06:00:00Z,28.9818,-94.9186,2.0,33.03,11111222 
TABS,ioos:station:wmo:42043:1,2013-04-06T06:30:00Z,28.9818,-94.9186,2.0,32.99,11111222 
TABS,ioos:station:wmo:42043:1,2013-04-06T07:00:00Z,28.9818,-94.9186,2.0,32.99,11111222 
TABS,ioos:station:wmo:42043:1,2013-04-06T07:30:00Z,28.9818,-94.9186,2.0,33.0,11111222 
TABS,ioos:station:wmo:42043:1,2013-04-06T08:00:00Z,28.9818,-94.9186,2.0,32.93,11111222 
TABS,ioos:station:wmo:42043:1,2013-04-06T08:30:00Z,28.9818,-94.9186,2.0,32.92,11111222 
TABS,ioos:station:wmo:42043:1,2013-04-06T09:00:00Z,28.9818,-94.9186,2.0,32.92,11111222 
TABS,ioos:station:wmo:42043:1,2013-04-06T09:30:00Z,28.9818,-94.9186,2.0,32.97,11111222 
TABS,ioos:station:wmo:42043:1,2013-04-06T10:00:00Z,28.9818,-94.9186,2.0,32.97,11111222 
TABS,ioos:station:wmo:42043:1,2013-04-06T10:30:00Z,28.9818,-94.9186,2.0,33.01,11111222 
TABS,ioos:station:wmo:42043:1,2013-04-06T11:00:00Z,28.9818,-94.9186,2.0,33.02,11111222 
TABS,ioos:station:wmo:42043:1,2013-04-06T11:30:00Z,28.9818,-94.9186,2.0,33.03,11111222 
TABS,ioos:station:wmo:42043:1,2013-04-06T12:00:00Z,28.9818,-94.9186,2.0,33.04,11111222 
TABS,ioos:station:wmo:42043:1,2013-04-06T12:30:00Z,28.9818,-94.9186,2.0,33.08,11111222 
TABS,ioos:station:wmo:42043:1,2013-04-06T13:00:00Z,28.9818,-94.9186,2.0,33.11,11111222 
TABS,ioos:station:wmo:42043:1,2013-04-06T13:30:00Z,28.9818,-94.9186,2.0,33.14,11111222 
TABS,ioos:station:wmo:42043:1,2013-04-06T14:00:00Z,28.9818,-94.9186,2.0,33.22,11111222 
TABS,ioos:station:wmo:42043:1,2013-04-06T14:30:00Z,28.9818,-94.9186,2.0,33.3,11111222 
TABS,ioos:station:wmo:42043:1,2013-04-06T15:00:00Z,28.9818,-94.9186,2.0,33.32,11111222 
TABS,ioos:station:wmo:42043:1,2013-04-06T15:30:00Z,28.9818,-94.9186,2.0,33.36,11111222 
TABS,ioos:station:wmo:42043:1,2013-04-06T16:00:00Z,28.9818,-94.9186,2.0,33.41,11111222 
TABS,ioos:station:wmo:42043:1,2013-04-06T16:30:00Z,28.9818,-94.9186,2.0,33.44,11111222 
TABS,ioos:station:wmo:42043:1,2013-04-06T17:00:00Z,28.9818,-94.9186,2.0,33.46,11111222 
TABS,ioos:station:wmo:42043:1,2013-04-06T17:30:00Z,28.9818,-94.9186,2.0,33.48,11111222 
TABS,ioos:station:wmo:42043:1,2013-04-06T18:00:00Z,28.9818,-94.9186,2.0,33.52,11111222 
TABS,ioos:station:wmo:42043:1,2013-04-06T18:30:00Z,28.9818,-94.9186,2.0,33.52,11111222 
TABS,ioos:station:wmo:42043:1,2013-04-06T19:00:00Z,28.9818,-94.9186,2.0,33.52,11111222 
TABS,ioos:station:wmo:42043:1,2013-04-06T19:30:00Z,28.9818,-94.9186,2.0,33.53,11111222 
TABS,ioos:station:wmo:42043:1,2013-04-06T20:00:00Z,28.9818,-94.9186,2.0,33.51,11111222 
TABS,ioos:station:wmo:42043:1,2013-04-06T20:30:00Z,28.9818,-94.9186,2.0,33.41,11111222 
TABS,ioos:station:wmo:42043:1,2013-04-06T21:00:00Z,28.9818,-94.9186,2.0,33.27,11111222 
TABS,ioos:station:wmo:42043:1,2013-04-06T21:30:00Z,28.9818,-94.9186,2.0,33.28,11111222 
TABS,ioos:station:wmo:42043:1,2013-04-06T22:00:00Z,28.9818,-94.9186,2.0,33.23,11111222 
TABS,ioos:station:wmo:42043:1,2013-04-06T22:30:00Z,28.9818,-94.9186,2.0,33.19,11111222 
TABS,ioos:station:wmo:42043:1,2013-04-06T23:00:00Z,28.9818,-94.9186,2.0,33.11,11111222 
TABS,ioos:station:wmo:42043:1,2013-04-06T23:30:00Z,28.9818,-94.9186,2.0,33.02,11111222 
TABS,ioos:station:wmo:42043:1,2013-04-07T00:00:00Z,28.9818,-94.9186,2.0,32.93,11111222 
TABS,ioos:station:wmo:42043:1,2013-04-07T00:30:00Z,28.9818,-94.9186,2.0,32.86,11111222 
TABS,ioos:station:wmo:42043:1,2013-04-07T01:00:00Z,28.9818,-94.9186,2.0,32.82,11111222 
TABS,ioos:station:wmo:42043:1,2013-04-07T01:30:00Z,28.9818,-94.9186,2.0,32.82,11111222 
TABS,ioos:station:wmo:42043:1,2013-04-07T02:00:00Z,28.9818,-94.9186,2.0,32.83,11111222 
TABS,ioos:station:wmo:42043:1,2013-04-07T02:30:00Z,28.9818,-94.9186,2.0,32.8,11111222 
TABS,ioos:station:wmo:42043:1,2013-04-07T03:00:00Z,28.9818,-94.9186,2.0,32.77,11111222 
TABS,ioos:station:wmo:42043:1,2013-04-07T03:30:00Z,28.9818,-94.9186,2.0,32.77,11111222 
TABS,ioos:station:wmo:42043:1,2013-04-07T04:00:00Z,28.9818,-94.9186,2.0,32.76,11111222 
TABS,ioos:station:wmo:42043:1,2013-04-07T04:30:00Z,28.9818,-94.9186,2.0,32.75,11111222 
TABS,ioos:station:wmo:42043:1,2013-04-07T05:00:00Z,28.9818,-94.9186,2.0,32.74,11111222 
TABS,ioos:station:wmo:42043:1,2013-04-07T05:30:00Z,28.9818,-94.9186,2.0,32.75,11111222 
TABS,ioos:station:wmo:42043:1,2013-04-07T06:00:00Z,28.9818,-94.9186,2.0,32.75,11111222 
TABS,ioos:station:wmo:42043:1,2013-04-07T06:30:00Z,28.9818,-94.9186,2.0,32.76,11111222 
TABS,ioos:station:wmo:42043:1,2013-04-07T07:00:00Z,28.9818,-94.9186,2.0,32.77,11111222 
TABS,ioos:station:wmo:42043:1,2013-04-07T07:30:00Z,28.9818,-94.9186,2.0,32.75,11111222 
TABS,ioos:station:wmo:42043:1,2013-04-07T08:00:00Z,28.9818,-94.9186,2.0,32.76,11111222 
TABS,ioos:station:wmo:42043:1,2013-04-07T08:30:00Z,28.9818,-94.9186,2.0,32.79,11111222 
TABS,ioos:station:wmo:42043:1,2013-04-07T09:00:00Z,28.9818,-94.9186,2.0,32.79,11111222 
TABS,ioos:station:wmo:42043:1,2013-04-07T09:30:00Z,28.9818,-94.9186,2.0,32.81,11111222 
TABS,ioos:station:wmo:42043:1,2013-04-07T10:00:00Z,28.9818,-94.9186,2.0,32.83,11111222 
TABS,ioos:station:wmo:42043:1,2013-04-07T10:30:00Z,28.9818,-94.9186,2.0,32.87,11111222 
TABS,ioos:station:wmo:42043:1,2013-04-07T11:00:00Z,28.9818,-94.9186,2.0,32.91,11111222 
TABS,ioos:station:wmo:42043:1,2013-04-07T11:30:00Z,28.9818,-94.9186,2.0,32.93,11111222 
TABS,ioos:station:wmo:42043:1,2013-04-07T12:00:00Z,28.9818,-94.9186,2.0,32.95,11111222 
TABS,ioos:station:wmo:42043:1,2013-04-07T12:30:00Z,28.9818,-94.9186,2.0,32.96,11111222 
TABS,ioos:station:wmo:42043:1,2013-04-07T13:00:00Z,28.9818,-94.9186,2.0,32.95,11111222 
TABS,ioos:station:wmo:42043:1,2013-04-07T13:30:00Z,28.9818,-94.9186,2.0,32.97,11111222 
TABS,ioos:station:wmo:42043:1,2013-04-07T14:00:00Z,28.9818,-94.9186,2.0,32.99,11111222 
TABS,ioos:station:wmo:42043:1,2013-04-07T14:30:00Z,28.9818,-94.9186,2.0,33.01,11111222 
TABS,ioos:station:wmo:42043:1,2013-04-07T15:00:00Z,28.9818,-94.9186,2.0,33.01,11111222 